Regional Weather Roundup
Issued by NWS Kansas City/Pleasant Hill, MO

Home | Current Version | Previous Version | Text Only | Print | Product List | Glossary On
Versions: 1 2 3 4 5 6 7 8 9 10 11 12 13 14 15 16 17 18 19 20 21 22 23 24 25 26 27 28 29 30 31 32 33 34 35 36 37 38 39 40 41 42 43 44 45 46 47 48 49 50
290
ASUS43 KEAX 232010
RWREAX

WEATHER ROUNDUP FOR EASTERN KANSAS AND NORTHWEST MISSOURI
NATIONAL WEATHER SERVICE KANSAS CITY/PLEASANT HILL MO
200 PM CST FRI FEB 23 2018

KSZ040-057-103>105-MOZ028-029-037-043-232100-
...KANSAS CITY METROPOLITAN AREA...

CITY           SKY/WX    TMP DP  RH WIND       PRES   REMARKS
K.C. INTL      CLOUDY    33  29  85 N6        30.28F WCI  28
K.C. DOWNTOWN  CLOUDY    36  29  75 N7        30.29F WCI  30
LEES SUMMIT    CLOUDY    35  31  85 N6        30.28F WCI  30
OLATHE - IXD   CLOUDY    34  31  88 N7        30.28F WCI  28
OLATHE - OJC   CLOUDY    34  31  88 N5        30.27F WCI  30
LAWRENCE       CLOUDY    35  30  82 N5        30.29F WCI  31

$$

MOZ001>008-011>017-020>025-030>033-038>040-044>046-053-054-232100-
...NORTHERN AND CENTRAL MISSOURI...

CITY           SKY/WX    TMP DP  RH WIND       PRES   REMARKS
ST. JOSEPH     CLOUDY    36  30  79 N6        30.30F WCI  31
MOSBY          CLOUDY    34  30  86 N7        30.30F WCI  28
WARRENSBURG    CLOUDY    36  32  87 NW6       30.28S WCI  31
WHITEMAN AFB   CLOUDY    38  34  87 CALM      30.22F
CLINTON        CLOUDY    39  36  87 NE3       30.27F
SEDALIA        CLOUDY    39  36  89 N6        30.28F WCI  35
WARSAW         NOT AVBL
CHILLICOTHE      N/A     39  30  70 NW5       30.30S
KIRKSVILLE     CLOUDY    37  32  82 NW5       30.28R WCI  33

$$

MOZ041-047>049-056>058-063>065-088>090-097-232100-
...EASTERN AND SOUTHERN MISSOURI...

CITY           SKY/WX    TMP DP  RH WIND       PRES   REMARKS
ST. LOUIS INTL CLOUDY    48  43  82 N7        30.26R
SPIRIT OF STL  CLOUDY    48  42  80 SW7       30.25F
COLUMBIA       CLOUDY    38  35  89 VRB5      30.27S WCI  34
JEFFERSON CITY CLOUDY    40  37  89 NW7       30.28S
ROLLA          CLOUDY    44  42  93 SW5       30.25S
OSAGE BEACH    CLOUDY    43  39  86 CALM      30.25F
SPRINGFIELD    CLOUDY    46  42  86 NE5       30.22S
BRANSON        CLOUDY    45  45 100 S5        30.26R
JOPLIN         CLOUDY    42  41  96 VRB3      30.25F
WEST PLAINS    CLOUDY    48  44  86 SE3       30.24F

$$

IAZ060-094-KSZ022-034>040-054-083-096-NEZ052-066-093-232100-
...KANSAS...SOUTHEAST NEBRASKA AND IOWA...

CITY           SKY/WX    TMP DP  RH WIND       PRES   REMARKS
TOPEKA         CLOUDY    35  31  85 N6        30.28F WCI  30
MANHATTAN      CLOUDY    34  27  75 SE5       30.28F WCI  30
EMPORIA        CLOUDY    32  28  85 E5        30.27R WCI  27
CHANUTE        CLOUDY    39  35  86 N6        30.24F WCI  35
WICHITA        CLOUDY    34  31  88 E8        30.24F WCI  27
OMAHA          MOSUNNY   28  22  78 N12       30.30F WCI  18
LINCOLN        PTSUNNY   32  26  78 NE9       30.30F WCI  24
FALLS CITY     PTSUNNY   36  28  73 NE5       30.28F WCI  32
LAMONI         CLOUDY    36  28  73 NW8       30.27R WCI  30
DES MOINES     PTSUNNY   35  26  69 NW13      30.27F WCI  26

$$





USA.gov is the U.S. government's official web portal to all federal, state and local government web resources and services.